Flag for Lithuania Weather past 2 weeks in Kaunas, Lithuania

Now
54 °F

Sunny.


Feels Like: 53 °F
Forecast: 42 / 70 °F
Wind: 5 mph from West

Location: Kaunas

Current Time: May 29, 2015 at 10:32:08 PM

Latest Report: May 29, 2015 at 9:50 PM


Visibility: 10 mi

Pressure: 29.92 "Hg

Humidity: 54%

Dew point: 37 °F

Location of KaunasLocation

Historic Weather in Kaunas — Graph

°F

Kaunas temperature yesterday

Maximum temperature yesterday: 64 °F (at 3:20 PM)
Minimum temperature yesterday: 45 °F (at 3:50 AM)
Average temperature yesterday: 54 °F

Past Weeks' High & Low Weather Summary

 TemperatureHumidityPressure
High70 °F (May 19, 4:20 PM)94% (May 20, 1:50 AM)30.24 "Hg (May 20, 1:50 AM)
Low34 °F (May 19, 4:20 AM)28% (May 25, 7:50 PM)29.71 "Hg (May 14, 9:20 PM)
Average53 °F68%29.92 "Hg
* Reported May 14 9:20 PM — May 29 9:20 PM, Kaunas, Weather by CustomWeather, © 2015

Note: Actual official high and low records may vary slightly from our data, if they occured in-between our weather recording intervals... More about our weather records

Advertising

Kaunas weather history for previous 24 hours

 ConditionsComfort  
Time TempWeatherWind HumidityBarometerVisibility
9:20 PM
Fri, May 29
57 °FSunny.3 mph44%29.89 "Hg10 mi
8:50 PM59 °FSunny.2 mph42%29.89 "Hg10 mi
8:20 PM61 °FPassing clouds.5 mph39%29.89 "HgN/A
7:50 PM61 °FPassing clouds.7 mph36%29.89 "HgN/A
7:20 PM63 °FPassing clouds.5 mph39%29.89 "HgN/A
6:50 PM63 °FPassing clouds.8 mph42%29.89 "HgN/A
6:20 PM61 °FPassing clouds.7 mph48%29.89 "HgN/A
5:50 PM61 °FBroken clouds.5 mph48%29.89 "HgN/A
5:20 PM61 °FBroken clouds.5 mph52%29.89 "HgN/A
4:50 PM61 °FBroken clouds.13 mph52%29.89 "HgN/A
4:20 PM63 °FBroken clouds.7 mph52%29.89 "HgN/A
3:50 PM61 °FPassing clouds.12 mph55%29.89 "HgN/A
3:20 PM59 °FPassing clouds.9 mph63%29.89 "HgN/A
2:50 PM59 °FPassing clouds.13 mph59%29.89 "HgN/A
2:20 PM63 °FBroken clouds.12 mph56%29.89 "HgN/A
1:50 PM63 °FBroken clouds.10 mph56%29.89 "HgN/A
1:20 PM61 °FMostly cloudy.13 mph55%29.86 "HgN/A
12:50 PM64 °FBroken clouds.12 mph46%29.86 "HgN/A
12:20 PM64 °FBroken clouds.13 mph43%29.86 "HgN/A
11:50 AM64 °FPassing clouds.9 mph43%29.86 "HgN/A
11:20 AM64 °FPassing clouds.7 mph46%29.86 "HgN/A
10:50 AM64 °FPassing clouds.8 mph40%29.86 "HgN/A
10:20 AM63 °FPassing clouds.6 mph45%29.86 "HgN/A
9:50 AM61 °FPassing clouds.6 mph52%29.86 "HgN/A
9:20 AM59 °FPassing clouds.5 mph51%29.86 "HgN/A
8:50 AM57 °FPassing clouds.5 mph55%29.86 "HgN/A
8:20 AM55 °FPassing clouds.5 mph59%29.86 "HgN/A
7:50 AM52 °FPassing clouds.5 mph67%29.86 "HgN/A
7:20 AM50 °FSunny.2 mph76%29.86 "Hg10 mi
6:20 AM45 °FSunny.No wind87%29.86 "Hg10 mi
5:50 AM41 °FFog.No wind87%29.89 "HgN/A
5:20 AM39 °FFog.No wind93%29.89 "HgN/A
4:50 AM39 °FFog.No wind93%29.89 "HgN/A
4:20 AM39 °FFog.No wind93%29.89 "HgN/A
3:50 AM41 °FFog.2 mph87%29.89 "HgN/A
3:20 AM41 °FClear.No wind87%29.89 "Hg10 mi
2:50 AM43 °FClear.No wind87%29.89 "Hg10 mi
2:20 AM43 °FClear.No wind87%29.89 "Hg10 mi
1:50 AM43 °FClear.No wind87%29.89 "Hg10 mi
12:50 AM46 °FClear.1 mph76%29.89 "Hg10 mi
12:20 AM48 °FClear.2 mph71%29.89 "Hg10 mi
11:50 PM
Thu, May 28
48 °FPassing clouds.3 mph71%29.89 "HgN/A
11:20 PM50 °FClear.3 mph67%29.89 "Hg10 mi
10:50 PM50 °FClear.5 mph71%29.89 "Hg10 mi
10:20 PM52 °FSunny.3 mph67%29.89 "Hg10 mi
Weather by CustomWeather, © 2015

See weather overviewHow to use our weather pages